Wind_Speed
22 22 22 23 23 24 24 24 25 25 25 26 26 26 27 27 26 26 25 25 24 24 23 22 22 21 21 20 20 19 18 18 17 16 17 17 17 17 16 15 16 16 16 15 15 14 14 15 15 14 13 14 14 13 13 13 12 12 11 11 11 10 9 8 4 3 4 5 7 9 11 13 13 13 17 20 21 21 21 22 22 23 24 25 24
22 22 22 23 23 23 24 24 24 25 25 26 26 27 27 27 26 26 25 25 23 22 22 21 21 20 20 20 20 19 18 17 16 15 16 16 17 17 15 15 15 16 16 16 15 14 14 15 15 14 13 13 14 14 13 12 11 11 11 10 10 10 10 8 5 4 4 5 6 8 10 11 11 13 17 20 22 22 23 23 24 24 24 26 26
23 23 23 23 23 23 23 24 24 25 26 26 27 27 27 26 25 25 24 23 22 21 20 20 20 19 20 20 19 18 18 17 16 15 15 15 16 16 15 15 15 16 16 17 16 15 15 15 15 14 13 14 14 13 12 11 10 10 10 10 10 9 9 9 6 4 5 5 6 8 10 9 10 12 16 19 21 23 24 24 25 24 24 27 28
23 23 23 23 23 23 23 24 24 25 26 27 27 27 26 25 23 22 22 22 21 21 20 19 19 19 20 20 19 18 17 16 15 15 14 14 15 16 15 15 16 16 16 17 16 15 15 16 15 14 12 13 13 12 11 11 11 10 10 10 9 9 8 8 7 4 5 6 7 8 9 9 10 11 14 18 21 22 23 25 26 26 25 27 30
24 24 24 24 23 23 23 24 24 25 26 27 27 26 25 24 22 21 22 21 21 21 21 20 20 19 20 19 18 18 16 15 15 15 15 15 15 16 16 16 16 17 17 17 16 15 15 15 14 13 11 11 12 12 11 11 11 11 10 9 8 8 7 6 7 6 5 7 9 9 8 10 11 10 11 17 21 21 20 22 26 27 27 29 31
25 25 25 25 24 24 24 25 25 26 27 27 27 26 25 24 23 22 22 22 22 22 22 21 20 20 19 18 18 17 16 15 15 15 15 15 16 16 16 16 16 17 17 16 15 14 14 14 13 12 10 10 11 11 11 11 11 11 10 9 7 7 6 6 8 7 5 7 8 8 9 10 10 10 12 15 17 18 17 20 22 23 26 31 34
25 25 25 25 25 25 25 25 26 27 27 27 26 25 24 24 23 23 22 22 23 22 22 22 21 20 19 19 18 17 16 16 15 16 15 15 15 16 16 16 16 16 16 15 14 14 13 13 13 11 10 10 11 11 11 11 10 10 9 9 9 8 5 5 5 5 5 7 7 7 10 10 9 11 13 13 13 14 15 18 20 20 21 28 35
26 26 26 26 26 26 26 26 27 27 28 27 26 25 25 24 23 23 23 23 23 23 22 22 22 21 20 19 18 17 16 16 15 15 15 15 15 15 15 15 15 15 15 15 14 13 13 12 12 11 10 9 10 10 11 10 9 9 7 7 9 8 4 3 4 4 5 6 6 7 9 10 9 11 13 13 13 14 15 15 18 20 20 26 33
27 27 27 27 26 27 27 27 27 28 28 27 27 26 25 24 24 23 23 23 23 23 22 22 22 21 21 20 19 17 17 17 16 15 15 15 15 15 15 15 15 15 15 14 13 12 12 11 10 9 9 9 8 9 9 9 8 6 4 5 8 7 5 4 5 6 6 7 7 8 9 9 10 12 13 14 13 15 16 15 16 19 20 24 29
28 28 28 27 27 27 28 28 28 29 28 28 27 26 25 24 24 24 23 23 23 23 23 22 21 21 21 20 19 18 18 18 17 16 15 14 15 15 16 15 15 15 14 14 13 11 10 9 8 7 7 7 8 8 8 8 7 5 4 5 6 7 7 6 6 6 7 8 7 8 8 9 10 12 13 13 13 13 15 15 17 19 20 23 26
28 28 28 28 28 28 28 29 29 29 29 28 27 26 26 25 24 24 24 24 24 24 23 22 22 21 21 20 19 18 18 18 17 16 16 14 14 15 15 15 15 14 14 13 12 11 10 8 7 6 6 6 7 8 8 7 6 5 5 5 6 7 8 8 7 7 7 7 8 8 8 8 10 11 11 12 12 13 13 14 16 17 18 19 22
28 28 28 29 29 28 28 28 28 28 29 29 28 27 26 25 24 24 24 24 25 25 24 23 21 20 19 19 18 18 20 18 15 14 16 16 14 14 14 14 14 14 13 12 11 10 9 8 7 6 5 5 6 7 7 6 5 4 4 5 6 7 7 6 7 8 7 7 7 8 7 9 11 10 11 13 14 14 13 12 12 14 15 15 18
26 29 29 29 28 27 27 28 28 29 29 28 28 27 26 25 25 25 25 25 25 24 23 22 20 19 18 17 18 21 23 19 13 11 13 15 14 13 13 12 12 12 11 10 10 9 8 7 6 5 4 4 4 5 5 4 4 3 3 4 5 7 8 8 8 9 9 7 7 8 9 10 11 12 14 16 16 15 14 13 14 15 15 16 21
25 26 26 26 26 26 28 29 30 29 29 28 28 28 27 26 26 25 25 25 24 24 23 21 20 19 16 17 21 24 24 20 14 10 10 11 13 13 12 11 11 10 10 9 8 7 7 6 5 4 3 2 2 4 4 2 1 2 4 5 7 8 9 10 11 11 9 6 7 11 13 13 14 17 18 16 16 18 18 20 22 23 23 24 28
26 24 24 25 27 29 31 31 30 30 29 29 28 28 27 27 26 25 25 25 24 24 23 21 20 18 16 18 22 23 23 20 15 11 10 8 10 12 12 11 10 9 8 8 6 5 4 4 3 2 1 1 2 4 5 3 2 4 6 7 9 11 10 11 14 13 10 8 11 14 15 16 17 18 17 16 18 20 22 24 26 26 26 27 27
28 26 27 29 31 33 33 32 31 31 30 29 29 28 28 27 27 26 26 25 24 23 22 21 20 18 17 19 21 22 22 20 15 13 12 6 6 10 10 9 9 8 7 6 5 4 3 2 1 0 1 2 3 4 5 4 3 7 10 11 12 13 12 13 16 14 10 9 11 12 13 15 16 16 16 15 17 20 23 24 21 19 20 21 20
27 27 29 31 33 33 33 33 33 32 31 30 29 28 28 28 27 27 26 26 24 23 23 21 20 20 18 17 19 21 20 18 16 16 13 5 3 7 7 7 7 6 6 5 4 4 2 1 1 1 2 2 3 3 3 3 7 11 14 14 15 15 15 16 17 14 10 9 11 13 14 16 16 16 17 15 15 19 22 20 17 15 16 17 15
26 27 28 30 32 33 33 33 33 32 31 30 29 29 28 27 27 26 26 26 25 24 23 22 21 21 19 17 18 19 18 17 18 17 11 6 3 4 4 5 5 4 5 4 3 3 1 0 0 1 1 1 3 3 1 5 11 14 15 16 16 17 18 20 19 15 14 13 14 15 16 16 16 16 16 16 16 18 19 18 17 15 13 13 15
27 27 27 28 31 32 32 32 31 31 31 30 29 29 28 27 26 26 26 26 25 25 23 23 23 21 19 19 19 20 21 21 19 14 9 8 6 3 1 4 4 3 3 3 3 3 2 1 1 1 0 1 3 3 2 9 13 13 14 14 16 18 20 21 20 18 19 19 18 18 18 17 17 17 16 17 17 17 18 18 18 15 12 13 15
28 28 27 27 29 30 31 30 30 30 30 29 28 27 27 26 26 25 25 25 26 26 24 24 24 23 20 20 20 22 23 22 18 13 8 7 7 4 2 2 2 2 2 2 4 5 4 3 2 1 0 1 3 3 6 10 12 11 11 13 16 19 20 21 21 21 22 22 22 22 21 20 19 18 18 17 16 17 18 18 18 16 14 15 15
30 29 28 28 28 29 29 29 28 28 28 27 27 26 25 25 25 24 25 25 26 26 25 24 24 23 22 20 20 21 21 20 19 16 10 6 6 5 4 1 2 1 2 3 6 6 6 5 4 3 2 1 4 2 5 8 10 11 13 14 15 17 19 22 23 23 24 25 24 24 24 22 22 21 21 20 19 18 18 18 19 19 17 18 17
31 30 29 29 28 28 28 28 27 27 26 25 26 26 25 24 24 24 24 24 25 26 26 25 24 23 22 21 21 21 21 20 19 17 13 9 5 6 6 5 4 3 4 7 8 8 7 7 6 4 3 2 4 2 4 11 15 16 16 15 14 17 20 23 24 24 24 24 24 25 25 24 23 23 23 23 22 22 22 21 21 21 21 22 22
31 30 29 29 28 28 27 27 26 25 25 25 25 25 24 23 23 23 23 23 23 24 25 25 24 23 22 22 21 21 20 20 19 16 14 10 7 9 10 7 6 6 8 10 10 10 9 9 8 7 6 4 5 5 10 17 18 18 18 17 17 19 21 22 22 23 23 24 24 25 24 23 23 23 23 23 24 24 25 24 23 23 24 24 25
31 30 30 29 28 27 26 25 24 24 24 24 24 24 24 23 23 23 23 23 23 23 24 24 24 23 22 22 22 22 21 20 19 17 16 13 10 10 12 11 10 11 11 11 11 11 11 11 10 10 10 8 7 10 15 17 17 17 18 18 19 19 19 20 21 21 22 23 23 24 24 24 24 24 24 24 25 26 26 25 25 24 25 26 27
31 31 30 29 29 28 27 25 24 23 23 23 23 24 24 24 24 24 23 24 24 24 23 23 23 23 22 22 22 22 22 21 21 19 18 16 14 14 15 15 14 14 13 12 12 11 11 11 11 12 12 12 12 13 14 15 16 17 17 17 18 18 19 20 20 21 22 23 23 23 24 25 25 25 25 25 26 27 27 27 27 27 27 28 29
32 31 31 30 29 28 27 26 24 23 23 23 22 23 24 24 25 25 24 24 24 23 23 23 22 21 20 20 21 21 21 20 20 20 19 18 17 17 16 16 15 15 13 12 12 11 11 12 12 12 13 14 15 16 16 17 17 17 17 17 17 18 19 19 20 21 22 22 23 24 25 26 26 26 26 26 27 27 27 27 27 27 27 26 28
33 32 31 30 29 28 27 27 25 24 24 23 22 22 23 23 24 24 24 24 23 22 22 22 21 20 19 19 19 18 18 18 17 16 16 16 15 15 15 14 14 13 12 12 12 12 13 13 13 13 14 15 16 16 17 17 17 17 17 17 17 18 18 19 20 21 22 23 24 25 26 26 26 26 25 26 27 27 26 25 23 23 25 23 23
33 33 32 31 30 28 27 27 26 25 24 23 23 22 22 22 22 23 23 23 23 22 22 21 21 21 20 19 19 17 16 16 15 15 14 13 13 13 12 12 11 11 11 12 12 14 14 15 15 15 15 15 16 16 16 17 17 17 17 17 18 18 18 19 20 21 22 22 23 24 25 25 26 26 26 26 27 27 27 23 17 18 20 17 18
33 33 31 30 29 28 27 27 26 26 25 24 22 21 21 20 20 20 20 20 20 20 20 19 19 19 19 18 18 16 15 15 15 14 13 12 11 10 10 9 9 9 10 11 13 14 15 15 14 14 15 15 16 17 17 17 18 18 18 18 19 19 19 19 20 20 21 20 21 23 24 24 24 24 24 26 27 26 26 23 18 19 19 15 17
33 31 30 29 29 29 28 27 26 26 25 24 22 20 18 17 16 16 16 16 16 16 16 17 17 17 16 16 16 15 14 14 13 11 10 9 8 8 7 8 8 9 10 11 12 13 13 12 12 13 14 15 16 17 17 18 19 20 20 20 21 21 20 20 19 19 20 20 21 22 21 19 21 23 23 25 26 26 26 24 20 18 17 14 17
34 31 30 30 30 30 29 28 27 26 25 24 23 21 19 17 16 15 16 16 16 16 16 16 16 15 15 14 13 12 11 11 9 8 8 7 7 8 8 8 9 9 10 10 11 12 11 11 12 12 13 15 17 18 19 19 20 21 21 22 22 22 21 20 20 19 20 19 19 18 14 12 15 19 20 22 24 25 24 22 16 13 13 14 16
35 33 31 31 30 30 29 28 28 27 26 25 24 23 22 19 16 15 15 15 15 15 15 14 14 13 13 13 11 11 10 9 9 8 8 8 8 9 9 9 9 10 10 10 12 12 11 11 13 14 14 15 18 19 20 20 21 22 22 23 23 23 22 21 21 20 20 19 17 16 14 12 13 17 19 21 23 22 19 15 11 10 11 13 15
34 34 33 31 30 29 29 29 28 28 27 26 26 25 24 21 18 16 15 14 14 14 14 14 13 13 13 12 11 11 11 10 9 9 9 9 9 9 10 10 10 10 10 11 12 12 12 13 16 17 18 19 20 21 21 22 23 22 20 18 19 19 20 21 22 21 21 20 19 19 19 18 18 19 20 19 19 19 17 15 12 10 11 13 16
31 31 31 31 31 30 30 29 29 28 28 28 27 26 25 23 21 20 18 16 15 15 16 16 15 14 13 12 12 12 11 9 9 9 9 9 9 10 10 11 12 11 11 12 13 14 15 16 18 20 21 21 21 22 22 23 24 21 15 12 14 16 18 20 22 21 21 21 20 20 21 21 21 21 21 19 17 16 16 15 12 10 12 14 15
28 28 28 29 30 30 29 29 29 29 28 28 27 27 26 24 23 23 21 20 18 18 17 17 16 14 12 12 11 11 10 9 9 9 9 9 10 10 11 12 12 12 13 14 16 17 18 19 20 21 22 22 23 24 24 23 22 19 13 13 17 21 21 22 22 22 22 22 22 22 23 23 23 23 23 23 21 20 19 18 16 14 15 14 14
27 27 27 28 28 29 29 29 28 28 28 27 26 25 25 23 22 22 21 19 18 17 16 16 15 13 12 11 11 10 10 10 10 10 9 10 10 11 11 12 13 13 15 16 17 18 19 20 21 22 23 24 24 24 21 19 19 19 19 20 23 24 24 25 24 23 24 25 25 25 25 25 25 24 23 23 23 23 24 25 22 21 21 20 18
27 27 28 28 27 27 27 27 27 26 26 26 25 24 23 22 21 20 18 17 16 16 15 15 13 12 12 12 11 11 11 10 10 10 10 10 11 12 14 15 15 16 17 17 18 19 20 21 22 23 23 23 22 21 20 20 21 23 24 25 26 26 27 26 26 26 26 27 27 27 26 26 26 25 23 24 25 25 25 25 23 23 24 24 23
26 25 26 26 26 26 26 26 25 25 24 24 24 23 22 21 21 19 18 17 16 16 15 14 13 13 12 12 11 11 10 10 10 11 11 12 12 13 15 16 16 17 18 18 19 20 21 22 22 23 23 22 21 21 22 23 24 24 25 25 26 27 27 27 27 27 27 27 27 27 26 26 26 25 24 24 25 26 27 26 24 23 24 23 20
24 23 22 22 23 24 25 25 25 25 25 24 24 23 23 22 21 20 18 18 17 16 15 15 14 13 12 11 11 11 10 11 12 12 12 12 13 14 15 16 17 18 19 19 19 20 21 22 22 21 21 22 22 23 24 24 24 24 25 26 27 27 27 27 27 27 27 27 27 27 26 26 26 26 25 25 26 27 28 28 27 25 24 23 21
24 22 21 21 22 23 23 24 25 26 26 25 24 24 23 22 22 21 20 19 18 17 16 15 14 13 12 12 12 11 11 12 12 12 12 13 14 14 15 16 17 18 19 19 19 19 20 20 20 20 20 22 23 23 23 24 24 24 25 25 26 27 27 27 27 28 28 28 27 27 27 27 27 26 26 26 27 27 27 28 28 27 25 25 25
24 22 22 21 22 22 23 24 25 26 26 25 25 24 24 23 22 21 19 18 17 17 16 16 14 12 12 12 12 12 12 13 13 13 13 13 13 14 15 16 17 17 18 18 18 19 19 19 19 19 20 21 22 22 23 23 24 24 25 25 26 27 28 28 28 28 28 28 28 28 28 27 26 26 26 27 28 27 27 26 25 24 23 23 23
23 22 22 22 22 23 24 25 26 25 25 25 24 24 23 22 21 20 19 18 17 17 16 15 13 11 11 11 11 12 13 13 13 13 13 13 14 14 15 15 16 17 17 17 18 18 19 19 19 20 20 21 21 21 22 23 24 24 25 26 26 27 28 28 28 28 28 28 28 28 28 28 27 27 27 28 27 26 25 24 24 23 22 23 23
22 22 23 23 24 24 25 25 25 25 25 25 24 23 22 20 19 19 19 18 17 17 16 14 13 11 11 11 11 12 13 13 13 13 13 14 14 15 15 15 16 16 17 17 18 18 19 19 19 20 20 20 20 21 21 22 23 24 25 25 26 27 28 28 28 28 28 28 28 27 27 28 28 27 27 27 26 25 25 25 25 24 23 22 23
22 22 23 23 24 24 24 24 25 25 25 24 22 21 20 19 19 19 19 18 18 17 15 14 13 12 12 12 12 13 13 14 13 14 14 15 15 15 15 15 16 16 17 18 18 18 19 19 20 20 20 20 21 21 22 22 23 24 24 25 26 27 27 28 28 28 27 27 27 28 28 28 27 27 26 26 25 24 25 26 25 25 25 24 23
22 22 23 24 24 24 24 24 24 24 23 22 21 20 20 20 20 20 19 19 17 16 15 14 13 13 13 13 13 13 13 13 14 14 15 15 15 15 15 15 16 16 17 18 18 18 19 20 20 20 21 21 21 22 22 23 24 24 24 25 26 27 27 27 26 27 26 26 27 28 28 28 28 26 25 24 24 23 24 25 25 25 26 26 25
22 22 23 24 25 25 25 24 24 23 22 22 22 22 21 21 21 20 19 18 17 16 15 15 14 14 14 13 13 13 13 14 14 15 15 15 15 15 15 16 16 17 17 18 18 18 19 20 20 21 22 21 22 23 23 24 24 25 25 26 26 26 27 26 25 25 25 25 26 27 27 28 29 28 27 26 26 26 27 28 28 27 27 28 28
22 22 23 24 24 25 25 24 24 23 23 23 22 22 21 21 21 20 19 18 17 16 16 15 15 15 14 14 14 14 14 14 14 15 15 15 15 15 16 16 17 17 18 18 18 19 19 20 21 22 22 22 23 23 23 24 24 25 26 26 26 27 26 25 25 25 25 25 25 26 27 28 29 29 29 29 28 28 29 30 30 29 29 28 29
22 23 23 24 24 25 25 24 24 24 23 23 23 22 22 21 20 19 19 18 17 17 17 16 16 15 15 15 14 14 14 15 15 15 15 15 15 15 16 16 17 18 19 19 19 19 20 20 21 22 22 23 23 24 24 24 24 25 25 26 26 26 25 24 24 25 25 25 25 26 27 28 29 30 30 31 30 30 31 31 30 29 27 26 26
22 23 23 24 24 24 24 24 24 24 24 24 23 23 22 21 20 20 19 19 18 18 17 17 17 16 16 15 15 15 15 15 15 15 15 16 16 16 16 17 18 18 19 19 19 20 20 21 21 22 22 23 24 24 24 25 25 25 25 25 25 25 24 24 25 25 24 24 26 26 27 29 30 30 31 31 31 31 32 32 31 30 28 27 28
22 23 23 23 23 23 23 23 24 24 24 23 23 22 22 21 21 20 20 19 19 18 18 18 17 16 16 16 16 16 16 16 16 16 16 16 16 16 17 18 18 19 19 20 20 20 21 21 21 22 22 23 24 24 24 25 25 25 25 25 24 25 25 24 25 25 24 24 25 26 26 28 30 30 31 32 31 31 31 31 31 30 29 28 29
22 22 22 22 23 23 23 23 23 23 23 23 22 22 22 21 21 20 20 19 19 19 18 17 17 17 17 17 17 17 16 17 17 17 17 17 17 17 18 19 19 19 20 21 20 21 21 22 22 23 23 23 24 24 24 25 25 25 25 25 25 25 25 24 25 25 24 23 23 25 26 28 29 30 31 31 31 30 31 31 31 31 29 28 28
Wind_Direction
157 156 155 154 153 152 152 151 151 151 149 149 147 144 143 142 141 140 140 141 141 141 139 137 137 134 133 132 131 132 132 131 130 130 128 127 126 128 131 133 130 126 124 120 117 119 117 114 112 111 112 109 103 100 96 93 91 84 82 80 74 73 71 68 61 7 355 356 350 350 354 0 5 358 352 357 2 2 1 3 6 6 3 0 359
157 155 153 154 152 151 151 150 150 149 147 146 144 143 143 142 143 143 142 142 142 141 140 138 137 135 135 134 133 133 131 130 130 130 129 129 130 130 133 132 128 125 121 119 117 117 115 112 110 110 110 107 102 100 95 91 91 89 83 81 77 69 64 64 54 11 345 343 340 343 350 354 353 349 350 354 356 358 359 1 4 5 3 360 358
157 155 153 152 152 152 151 149 149 148 146 144 143 143 143 143 145 145 143 142 142 141 140 139 138 137 136 134 132 131 130 129 130 130 130 131 130 130 131 130 127 125 123 120 118 118 116 112 109 109 108 104 100 97 95 92 90 90 87 82 79 72 61 58 52 12 336 338 337 339 344 347 344 343 349 352 352 354 357 358 0 2 1 359 357
158 156 154 152 152 151 150 148 148 146 144 144 143 143 143 143 145 144 142 141 141 140 140 139 138 137 135 133 131 130 130 129 129 129 130 130 130 130 131 131 129 126 123 120 120 120 117 112 109 107 104 102 101 98 99 101 96 92 87 78 74 70 58 50 48 22 331 329 336 340 340 340 341 341 345 349 351 353 354 354 355 359 0 359 356
159 158 156 154 152 150 149 148 147 145 144 143 144 143 143 143 143 142 141 141 141 141 140 139 139 137 134 133 131 129 129 129 129 129 130 131 132 132 132 131 128 125 122 121 120 118 113 108 105 104 104 103 104 106 108 107 103 97 89 81 74 66 56 42 31 23 355 330 332 340 341 339 340 343 345 347 350 351 349 347 350 354 356 356 354
159 158 156 155 152 151 150 149 148 146 145 144 144 144 144 143 143 142 142 142 142 141 141 140 140 138 135 132 131 129 129 129 129 129 130 131 132 131 130 129 126 123 120 117 116 113 110 108 106 105 107 107 108 112 112 107 102 95 90 86 74 60 50 33 19 17 2 333 328 333 339 342 342 343 346 347 346 345 341 340 345 350 349 349 350
159 157 157 155 153 153 153 152 151 148 147 146 145 145 144 144 142 142 142 143 142 142 142 141 140 138 135 132 130 128 128 127 126 126 127 129 130 129 127 126 123 120 117 115 115 114 112 111 111 112 111 108 111 114 112 108 99 90 85 75 62 53 39 12 2 357 339 332 332 332 337 344 345 343 344 345 343 342 342 339 339 341 341 340 344
161 159 159 156 155 155 155 154 151 150 148 147 147 146 145 145 143 143 143 143 143 143 143 142 140 138 134 131 128 127 126 123 122 123 126 127 129 127 125 124 123 121 119 117 117 116 115 115 115 116 113 109 111 114 115 113 100 89 79 63 55 49 30 350 343 343 335 336 341 341 341 345 348 345 346 348 348 344 345 340 330 330 331 331 338
161 160 160 158 158 157 156 154 152 151 150 149 149 148 147 147 145 144 145 145 144 145 145 143 141 138 135 131 129 126 122 118 115 117 121 125 127 125 122 121 120 120 120 119 118 117 116 115 114 114 115 113 115 120 122 116 108 105 87 59 50 39 22 2 354 353 349 347 347 346 345 347 349 349 347 349 346 336 334 334 326 324 324 323 332
163 162 160 159 160 158 157 156 154 154 153 152 152 151 149 149 147 146 146 146 146 146 146 145 143 140 137 134 130 126 121 115 109 107 109 116 122 122 120 118 117 119 120 119 118 115 113 112 110 111 114 117 124 129 130 122 115 116 97 62 43 27 16 8 3 358 351 347 346 346 344 342 345 347 340 338 336 329 329 331 326 325 328 325 328
163 162 161 160 160 159 157 157 157 157 156 156 154 153 152 151 149 149 148 148 149 149 149 147 145 143 140 136 132 127 117 108 103 100 98 102 112 117 118 118 117 117 116 116 114 113 114 114 114 116 115 119 130 134 133 126 113 101 85 63 43 27 18 6 353 349 347 339 335 340 339 332 333 336 333 332 331 328 326 326 324 325 330 328 322
164 163 162 162 161 160 159 158 158 158 159 159 158 156 155 153 151 151 150 151 151 151 151 150 147 145 142 138 135 127 116 109 107 101 92 90 97 108 114 115 115 114 112 113 113 113 116 114 113 116 113 118 135 138 133 122 103 88 70 52 33 21 18 6 346 337 334 327 323 328 329 325 326 326 329 329 325 322 320 319 322 321 322 320 309
165 164 163 163 162 162 162 160 159 160 161 161 161 159 158 156 154 154 153 153 154 154 153 152 150 148 145 141 137 129 123 122 124 112 94 84 83 92 103 106 108 108 108 109 111 111 114 113 111 113 109 112 134 145 141 122 95 73 43 23 10 3 358 353 347 337 325 315 309 314 325 328 319 317 330 330 320 318 318 313 316 313 309 309 301
164 163 162 164 164 164 164 163 162 162 163 163 163 163 162 160 158 157 155 155 155 155 155 154 152 150 146 143 140 136 132 131 133 128 109 85 71 75 87 95 100 104 104 105 105 103 103 103 103 106 107 115 149 165 168 160 114 17 1 353 346 347 343 338 340 336 327 319 309 315 327 331 323 323 333 331 316 312 311 307 310 309 306 307 307
166 163 162 164 166 166 166 166 165 164 165 166 165 165 165 163 162 160 158 158 157 157 156 154 151 148 147 146 146 145 139 134 136 141 131 100 66 64 73 85 94 98 99 100 97 95 94 89 89 96 114 174 206 201 205 218 268 326 340 339 333 334 334 333 334 332 329 326 321 322 328 329 327 326 327 324 314 308 305 306 311 313 312 313 314
169 168 167 167 168 169 169 169 168 167 167 167 167 167 167 166 165 164 162 160 158 157 154 152 148 144 143 147 151 153 146 138 143 150 146 129 59 53 61 74 85 87 91 94 92 91 95 92 96 178 218 226 234 218 209 230 295 326 330 328 324 325 328 331 330 325 315 308 308 313 313 312 313 311 310 314 311 305 306 310 314 314 313 313 311
171 171 170 170 170 171 172 171 170 169 169 169 168 168 169 169 169 168 165 162 160 158 155 151 147 141 140 145 153 158 153 147 151 156 161 179 12 35 48 66 78 82 85 87 83 80 81 98 147 224 232 227 228 198 181 273 309 320 322 319 317 318 322 325 324 320 308 294 290 292 295 297 300 302 304 307 303 301 307 310 311 311 310 309 306
173 173 172 172 172 173 174 173 172 170 170 170 170 170 170 171 170 170 169 166 163 161 157 152 148 144 142 143 151 160 160 155 153 156 175 220 292 359 38 73 80 79 82 81 70 64 63 57 169 217 230 233 214 169 139 298 301 306 309 308 308 310 315 318 319 319 315 308 303 301 303 306 308 308 309 308 306 306 307 306 308 309 303 299 301
175 175 175 174 175 175 175 175 174 172 172 172 172 171 171 171 171 172 172 171 167 164 161 157 154 152 149 144 147 153 154 150 148 154 183 227 262 298 60 100 94 88 87 72 37 27 8 347 1 212 222 255 194 145 338 295 289 295 297 298 302 306 310 313 315 318 318 316 316 315 314 315 314 312 313 313 312 310 307 306 309 306 293 290 297
176 176 176 175 175 175 176 176 176 175 174 173 172 172 171 171 171 171 173 174 171 169 166 163 161 160 156 151 149 151 152 152 152 154 179 226 249 243 189 129 88 94 86 41 14 2 346 347 344 302 10 194 176 99 358 302 283 287 286 288 301 306 306 308 313 317 317 317 318 318 318 319 317 315 316 317 314 310 309 310 309 303 293 289 291
177 177 177 175 176 176 176 177 177 176 176 174 172 172 171 172 172 171 173 176 176 174 172 169 168 167 164 161 158 158 159 161 160 156 158 191 229 226 217 274 335 54 44 6 359 351 340 339 327 309 342 239 194 107 2 291 270 280 286 291 302 302 299 304 311 314 314 314 315 316 317 319 320 319 320 320 318 315 314 312 310 306 299 293 289
177 176 176 176 177 177 177 178 179 177 176 174 172 172 172 173 173 172 174 176 178 178 177 175 175 174 173 171 170 168 168 168 168 167 163 163 207 252 263 288 316 341 350 343 341 338 331 327 318 305 310 267 188 143 313 277 270 281 287 289 291 287 290 299 305 307 309 310 311 312 314 316 317 318 319 318 316 316 317 316 313 310 305 300 295
175 174 174 174 174 176 178 178 179 177 175 175 175 173 172 172 173 173 174 176 177 179 180 181 182 182 181 182 182 180 180 181 184 190 192 190 219 265 278 290 305 318 326 327 327 326 321 318 314 306 302 275 200 222 273 274 275 282 285 285 285 286 290 295 298 300 303 304 305 308 310 311 313 314 315 314 312 313 314 315 313 309 306 304 302
173 171 171 172 173 174 176 177 177 176 175 176 176 173 171 170 170 172 174 175 176 177 180 183 186 187 190 193 194 195 196 199 202 208 214 217 226 252 273 285 294 303 310 313 313 314 312 310 308 305 304 292 259 257 268 273 278 284 287 288 290 291 292 293 295 297 299 300 302 303 305 307 308 309 310 309 308 309 311 312 312 311 309 308 307
171 170 171 172 172 172 173 174 176 176 176 176 175 173 171 170 169 171 173 176 176 177 178 181 184 189 193 197 203 206 208 212 217 220 225 231 236 248 265 277 286 293 298 300 302 303 302 302 303 302 301 298 291 286 285 286 288 289 289 290 291 292 292 292 293 294 294 296 297 297 300 303 304 305 307 307 308 309 311 313 314 314 314 313 312
169 169 169 170 171 172 171 171 173 174 175 176 176 175 173 172 171 171 174 176 178 179 180 181 183 187 191 196 203 208 212 216 222 226 230 235 242 251 261 270 277 284 288 290 292 293 292 294 296 297 298 298 298 297 297 297 295 292 291 290 290 291 292 291 291 290 289 291 293 294 297 299 301 303 306 308 309 310 312 314 313 313 315 314 312
169 167 168 168 169 171 172 171 171 173 174 176 178 178 177 176 175 175 176 178 179 181 182 183 184 186 190 195 199 203 207 211 217 222 227 232 240 248 256 264 271 276 282 287 291 293 294 295 295 297 297 297 297 297 297 298 297 295 294 293 291 291 290 289 288 287 286 288 291 293 295 296 299 303 306 308 309 310 311 312 309 308 312 312 307
169 167 168 168 169 171 174 173 173 174 175 177 179 180 180 180 180 180 181 181 182 183 184 185 187 188 190 193 194 195 201 207 211 216 222 227 235 242 248 256 263 272 282 290 292 293 294 296 297 299 300 301 302 303 303 303 302 300 298 296 293 291 289 288 288 288 290 292 293 294 295 297 300 303 305 307 308 309 310 310 303 300 307 308 299
168 167 166 167 169 172 175 176 176 176 177 178 180 181 181 182 182 185 187 186 184 186 187 188 189 189 190 191 190 190 198 206 210 214 218 223 228 235 240 250 263 276 284 287 290 294 297 299 300 302 303 304 306 308 308 308 308 306 304 300 299 297 296 295 294 293 295 295 294 295 296 297 298 301 303 305 306 306 308 308 301 299 303 298 289
166 166 166 169 172 174 175 177 179 179 178 178 179 178 177 178 180 182 185 185 184 184 186 187 188 187 188 190 189 191 200 209 212 215 220 225 232 238 248 258 269 277 282 287 292 296 296 294 293 296 298 300 301 304 305 305 306 308 308 306 304 304 303 302 301 299 299 297 296 296 295 293 295 298 300 301 303 304 305 305 301 298 298 292 287
166 167 170 173 175 176 177 179 180 180 179 178 176 172 170 172 176 179 181 183 184 184 184 185 186 186 187 191 193 198 207 214 219 224 230 238 245 251 257 264 269 276 283 288 288 286 282 280 283 287 291 294 299 303 305 305 305 307 307 307 306 305 305 306 306 303 300 298 296 294 288 282 287 293 295 297 299 301 303 303 298 287 285 285 284
171 171 173 176 176 177 180 180 180 181 180 178 175 172 170 169 172 178 182 183 184 185 186 187 187 189 192 195 199 205 214 222 227 232 237 242 248 253 258 265 271 277 278 277 275 273 271 273 281 287 290 293 298 302 304 304 304 305 305 305 305 305 303 303 304 303 300 297 293 290 286 280 283 290 293 296 297 298 298 296 287 277 277 280 280
178 176 176 177 177 179 182 183 183 183 181 179 178 176 174 171 170 173 177 181 184 186 188 190 192 195 199 202 206 213 220 225 229 232 236 240 247 255 263 269 272 273 271 266 266 268 269 273 282 290 294 296 298 301 302 302 303 304 301 298 299 302 302 302 305 306 305 302 298 295 294 293 292 293 295 296 295 294 293 291 287 280 277 279 282
184 182 181 180 180 182 184 185 185 185 184 183 182 180 179 178 175 172 171 175 184 191 194 196 198 200 202 206 211 218 224 229 234 238 242 247 254 262 270 274 275 273 268 263 264 270 275 280 285 291 294 297 298 299 300 301 302 300 293 283 290 298 301 303 305 306 306 305 302 299 297 297 296 295 295 294 292 288 288 290 286 279 277 280 283
185 184 184 184 185 185 186 187 187 187 187 186 186 186 185 185 183 181 179 179 184 191 197 202 204 206 208 211 216 223 229 235 242 247 251 257 263 267 269 270 271 270 269 269 272 277 280 283 287 291 293 295 297 297 298 299 298 296 288 286 293 298 300 301 302 301 301 302 301 299 298 297 297 297 296 294 292 289 288 289 287 282 282 281 280
186 185 185 186 188 189 189 190 191 190 189 189 189 189 189 189 189 189 190 190 191 193 199 206 209 210 214 218 223 228 234 239 245 252 257 262 265 266 264 264 265 269 274 278 282 285 287 288 291 293 294 295 295 295 295 294 293 294 293 293 295 297 298 299 299 298 298 300 300 300 299 298 298 298 295 292 291 290 290 291 290 288 288 286 283
188 188 188 189 190 191 191 192 193 192 191 191 190 188 188 190 191 192 195 197 197 198 203 209 210 211 217 223 226 231 239 245 251 259 264 266 266 265 265 267 269 274 280 285 289 292 294 294 295 296 296 294 293 293 293 293 293 296 296 296 296 297 297 297 297 296 296 298 299 299 298 297 298 297 294 291 291 290 290 290 289 288 290 290 288
191 192 193 192 192 192 193 192 192 192 191 190 189 189 189 190 192 194 196 198 199 202 206 210 210 211 218 226 230 235 245 253 259 264 266 266 266 266 268 272 275 278 284 289 291 292 293 294 294 295 294 292 292 293 295 296 296 297 297 297 298 298 298 299 299 299 299 298 298 298 298 297 297 297 294 291 290 290 291 290 288 287 290 290 286
192 194 196 196 194 194 194 192 190 190 190 189 189 191 192 193 194 196 199 201 203 204 207 212 215 216 220 228 234 239 247 253 258 262 265 265 267 269 271 275 279 282 286 289 290 290 291 292 293 293 293 294 296 297 298 298 298 298 298 298 298 299 300 300 300 299 299 298 297 297 297 296 296 296 294 292 290 291 291 291 290 289 287 286 283
191 193 195 196 196 195 194 192 190 189 188 189 190 192 194 196 197 198 200 202 204 206 211 216 219 219 221 227 233 239 246 251 255 259 262 264 267 270 273 276 280 283 287 289 289 290 290 291 292 294 295 296 298 299 300 300 300 300 300 300 300 300 301 300 299 299 298 297 297 296 296 296 297 297 294 292 291 292 291 292 292 291 288 287 287
191 192 193 195 195 195 193 192 192 191 190 191 192 194 196 198 199 201 203 205 208 212 217 220 221 220 222 229 235 241 247 252 257 260 263 266 270 273 276 280 283 286 288 290 290 290 290 292 293 294 296 298 300 301 302 302 302 302 302 302 301 301 301 302 301 300 300 299 298 297 297 297 296 294 293 292 293 293 292 290 290 289 288 286 286
192 192 192 193 193 193 192 192 193 193 194 195 196 197 199 200 202 204 207 210 213 217 222 225 225 225 227 234 242 247 252 257 261 264 268 273 276 279 282 285 287 289 290 291 291 290 291 292 294 295 297 299 301 301 302 302 302 302 302 301 301 301 302 302 301 301 301 301 300 299 299 299 297 294 293 293 293 292 290 288 287 287 285 284 285
194 194 194 193 192 193 194 194 194 195 197 198 199 200 201 203 206 208 211 215 218 222 226 230 231 232 235 241 247 251 257 262 267 271 277 280 282 285 289 290 291 291 291 291 291 290 291 292 293 295 297 299 300 301 300 300 300 299 299 299 299 299 300 301 301 302 302 301 300 300 299 299 298 296 295 294 292 290 289 289 288 287 284 283 285
196 196 196 195 193 194 196 196 197 198 199 200 201 202 204 206 209 211 215 219 221 225 230 234 236 239 243 246 250 254 260 266 271 275 280 283 285 288 291 292 291 290 289 290 291 290 290 290 292 294 296 298 299 300 299 298 297 297 297 297 297 298 299 301 301 302 301 299 298 298 298 297 297 296 294 293 292 290 289 289 288 288 288 287 285
198 198 197 196 195 196 197 199 200 201 200 201 203 205 207 209 211 215 219 222 226 230 235 239 242 245 248 251 255 259 263 269 274 278 281 284 287 290 292 291 291 289 289 290 291 290 289 290 292 294 297 298 299 299 298 298 297 297 296 296 296 297 299 300 300 300 299 297 296 296 295 295 294 292 290 290 289 287 286 287 288 288 289 288 287
200 200 199 198 197 198 199 200 201 202 202 203 206 208 209 212 215 219 222 226 230 235 239 243 247 251 254 257 261 264 268 273 277 279 282 285 288 291 291 290 289 289 289 289 289 289 290 291 292 294 296 297 297 298 298 297 297 298 297 297 297 297 298 300 300 299 298 297 295 295 294 292 292 291 290 289 288 287 287 288 288 288 288 289 289
202 202 202 202 201 201 201 201 201 202 204 207 209 211 214 217 220 224 227 231 235 239 243 247 252 255 258 261 263 267 273 277 278 281 284 287 288 289 289 289 289 288 288 288 288 289 290 292 292 293 295 295 296 297 297 297 298 298 299 299 299 300 301 301 299 298 296 296 295 294 293 291 291 291 290 290 289 287 288 289 289 289 290 290 290
203 203 203 204 204 204 204 203 203 204 207 210 212 215 218 221 225 228 232 235 239 243 247 251 255 258 260 263 267 270 275 278 280 283 286 287 288 289 288 287 287 287 287 288 290 290 290 291 292 293 294 295 296 298 298 298 299 300 300 301 301 301 302 301 298 296 295 294 293 293 292 291 291 290 290 290 289 288 288 289 289 289 290 289 288
205 205 205 206 206 206 207 207 207 208 211 213 215 218 221 224 228 232 235 239 243 247 251 254 258 261 263 266 269 273 275 278 281 284 286 288 289 289 288 287 286 286 287 289 291 291 292 292 292 293 294 295 297 298 299 300 301 301 301 302 302 301 300 298 295 293 293 292 292 292 291 291 291 290 290 290 290 289 290 290 290 291 290 289 289
206 207 208 208 208 209 210 211 212 214 216 216 219 222 225 228 231 235 238 243 246 250 254 257 260 263 266 269 272 275 277 280 283 286 288 290 290 290 288 288 288 288 289 290 292 293 294 293 293 294 295 296 297 298 299 301 302 303 303 303 302 300 299 297 294 293 292 290 289 289 289 288 288 288 289 290 290 290 290 290 291 291 291 289 289
208 209 210 211 211 212 213 214 215 217 219 221 223 226 229 232 235 238 241 245 249 252 257 260 262 264 267 270 274 277 279 282 285 288 290 291 292 291 289 289 289 290 291 292 293 294 295 295 295 296 296 297 298 299 300 302 304 305 304 303 302 300 299 297 296 294 293 290 288 287 286 285 286 287 288 289 289 289 290 290 291 291 290 288 287
Height
833 834 835 836 837 838 839 839 840 841 842 843 845 846 848 849 851 853 854 857 859 861 862 863 863 864 865 867 868 870 872 873 874 874 874 875 876 878 880 881 881 881 882 882 882 883 884 885 885 886 887 887 888 888 887 887 887 887 887 888 888 889 889 890 891 892 892 891 890 890 889 887 886 885 884 882 881 879 878 876 874 872 870 868 866
834 835 836 837 838 839 840 840 841 842 843 844 845 847 848 850 852 853 855 857 859 861 862 863 864 865 866 868 869 871 872 874 875 876 876 877 878 880 881 882 882 881 881 882 883 885 885 886 886 887 888 888 888 888 888 888 888 888 889 890 890 891 891 892 892 893 893 892 892 891 889 888 887 885 884 881 880 878 876 875 873 871 869 867 865
834 835 837 838 838 839 841 841 842 843 844 845 846 848 849 851 853 854 855 857 859 861 863 864 866 867 868 870 871 872 873 875 876 877 878 879 879 880 881 882 882 882 882 883 884 885 886 887 888 888 889 888 888 888 888 889 890 890 891 892 892 893 893 893 893 894 894 893 892 891 889 888 887 885 883 881 879 877 875 874 872 871 869 866 864
834 835 837 839 839 840 841 843 844 844 845 847 848 849 851 852 854 855 857 858 860 862 864 866 867 869 870 871 872 874 875 876 877 878 880 881 881 881 882 883 883 883 883 884 885 886 887 887 888 889 889 889 889 889 890 891 892 892 893 894 894 894 894 894 894 895 895 893 892 891 889 888 887 885 883 881 879 877 875 873 871 869 868 866 863
834 835 837 839 840 842 843 844 845 846 847 848 849 851 852 854 855 857 858 860 861 863 865 866 868 870 871 872 873 875 876 877 878 879 881 881 882 882 883 884 884 884 884 885 886 886 887 887 888 889 890 890 890 891 892 892 893 894 894 895 895 895 895 895 895 895 894 893 892 891 890 888 886 885 883 881 878 876 874 873 871 868 867 865 863
834 835 837 839 840 842 844 845 846 847 848 849 851 852 853 855 856 858 860 861 862 864 865 867 869 870 872 874 875 876 878 879 879 880 881 882 883 883 884 884 884 884 884 885 885 886 887 888 889 890 891 892 892 893 893 894 894 894 895 895 896 896 896 896 895 895 895 894 892 891 889 888 886 884 883 881 878 876 874 872 870 869 867 864 862
835 836 838 840 841 843 844 846 847 848 849 850 852 854 855 856 858 859 861 862 863 865 866 867 869 871 873 875 877 878 879 880 880 881 881 882 883 884 884 885 885 884 885 885 886 887 888 889 890 891 893 893 894 894 894 894 895 895 896 896 896 897 897 897 896 896 895 894 892 891 889 887 886 884 883 881 879 878 876 873 870 869 867 865 861
835 836 838 840 841 843 844 846 848 849 850 852 853 855 856 858 859 860 862 863 865 866 867 869 870 872 874 877 878 880 881 881 881 882 882 883 884 884 885 885 885 885 885 886 887 888 889 890 891 893 894 894 894 894 894 895 895 896 897 897 897 898 898 898 897 896 895 894 892 891 889 887 886 885 883 881 879 878 877 875 872 869 867 865 862
835 836 838 840 841 842 844 846 848 850 852 853 855 856 858 859 860 861 863 864 866 868 869 871 872 873 876 878 880 881 882 882 883 883 883 884 884 885 885 885 886 886 887 887 888 889 890 891 892 894 895 895 895 895 895 895 896 897 898 898 898 899 898 898 897 896 894 893 892 891 889 888 887 885 883 882 881 879 878 876 874 871 868 864 862
835 836 837 840 842 843 845 847 849 851 852 854 856 857 858 860 861 862 864 865 867 869 871 873 874 875 877 879 881 882 883 883 884 885 885 885 885 886 886 886 887 888 888 889 889 890 890 892 893 894 895 895 895 895 896 896 897 898 899 899 899 898 897 896 896 895 894 893 893 891 890 889 888 886 885 883 882 880 878 877 874 871 868 863 859
835 836 837 839 842 843 845 847 849 851 853 855 856 858 859 861 862 864 865 867 868 870 872 874 876 877 879 880 881 883 884 884 885 886 886 886 887 887 887 888 889 889 889 889 889 890 892 893 894 895 895 895 896 896 896 897 897 898 898 898 898 897 897 896 896 896 895 894 893 892 891 889 888 887 885 884 882 881 879 877 875 872 869 866 860
834 835 837 839 841 843 845 847 849 851 853 855 857 859 860 862 863 865 866 868 870 872 874 875 877 878 880 881 883 883 884 886 888 888 888 888 888 888 889 889 889 889 889 890 891 892 893 894 895 895 895 895 896 896 897 897 898 898 898 898 897 897 897 897 896 896 895 894 893 892 891 890 888 887 885 884 882 880 878 877 876 873 871 869 864
832 834 836 838 841 843 845 847 849 851 853 855 857 859 861 862 864 866 867 869 871 873 874 876 877 879 881 882 883 884 885 888 890 889 889 889 889 889 889 889 889 890 890 891 892 893 894 895 895 895 895 896 896 896 897 897 898 898 898 898 897 897 896 896 896 895 894 893 893 891 891 889 888 886 885 884 881 880 878 876 875 873 871 868 865
832 833 835 838 840 842 844 846 848 850 853 855 857 859 861 863 865 866 868 870 871 873 875 876 878 879 881 883 884 885 886 888 890 890 889 889 890 889 889 889 890 891 891 892 893 894 894 895 895 896 896 896 896 897 897 898 898 898 898 897 896 896 896 895 895 894 893 893 892 890 889 889 887 885 884 883 881 879 877 875 873 872 869 866 863
831 832 834 836 838 840 843 845 848 850 852 855 857 859 861 863 865 867 868 870 872 874 875 877 878 880 882 883 884 885 886 887 890 891 890 889 890 890 890 891 891 892 893 893 894 895 895 895 896 896 896 896 897 897 897 898 898 897 897 896 895 895 895 894 893 893 892 892 891 889 888 887 886 884 883 882 880 877 876 874 871 869 866 862 859
830 832 833 834 837 839 841 844 846 849 852 854 856 858 860 862 864 866 868 870 872 874 876 877 879 880 882 883 884 886 886 888 890 891 890 890 890 890 891 892 892 893 893 894 895 895 896 896 896 896 897 897 897 897 897 897 897 896 895 895 895 894 893 893 892 891 891 891 890 889 888 886 885 884 882 881 878 875 873 872 870 868 865 861 858
829 831 833 834 836 838 841 843 845 848 851 853 855 858 860 862 864 866 868 870 872 874 876 878 879 880 882 883 885 886 887 888 890 891 890 890 891 891 892 893 893 894 895 895 896 896 896 896 897 897 897 897 896 896 896 896 895 895 894 894 893 892 892 891 891 890 890 889 889 887 886 884 883 881 880 879 877 874 872 871 870 868 865 861 857
829 831 833 834 836 838 840 843 844 847 849 852 854 857 859 861 863 866 868 870 873 874 876 878 879 881 883 884 885 886 887 889 890 891 890 891 892 893 893 894 895 895 896 896 896 897 897 897 896 896 896 895 895 895 896 896 895 894 893 893 892 891 891 890 889 888 887 886 886 884 883 881 880 879 877 876 874 873 871 869 868 867 865 862 858
828 831 833 835 836 838 841 843 845 847 849 851 854 856 858 861 863 865 868 870 873 875 876 878 880 881 883 884 885 887 887 889 890 891 892 892 893 894 895 895 896 896 897 897 897 897 897 896 896 895 895 895 894 894 895 895 895 894 893 892 891 890 889 888 887 886 884 883 882 880 880 878 877 876 875 873 872 871 869 868 866 865 863 861 859
827 831 833 836 838 839 842 844 846 847 849 851 853 855 858 860 862 865 867 870 872 874 876 878 880 882 884 885 886 887 888 889 891 892 893 893 894 895 895 896 896 896 896 896 896 896 895 895 895 894 894 894 894 894 895 894 893 893 893 892 891 889 887 886 885 883 882 880 879 877 876 875 874 873 872 871 870 868 867 866 864 863 862 859 858
827 830 833 836 839 841 843 845 846 848 850 851 853 856 858 860 862 864 867 869 872 874 876 878 880 882 884 885 886 887 888 889 891 893 893 894 894 894 895 895 895 896 895 895 895 895 894 894 894 893 894 894 893 894 894 893 892 892 892 891 890 888 886 884 883 881 880 878 877 875 874 873 872 870 869 868 867 866 865 863 862 860 859 857 855
827 830 833 836 839 841 844 845 847 849 850 852 854 855 857 860 862 864 866 869 872 874 876 878 880 882 884 885 887 888 889 890 891 892 893 894 893 893 894 894 894 894 894 894 894 894 893 893 893 893 893 893 893 894 894 892 891 891 890 890 889 886 884 883 881 880 878 877 875 874 872 871 870 868 867 866 864 863 862 861 859 857 856 854 852
827 830 833 836 839 841 843 846 848 849 851 853 854 855 858 860 862 864 867 869 872 874 876 878 880 882 884 885 887 888 889 890 891 892 892 893 893 892 892 893 893 893 893 893 893 893 892 892 892 892 892 892 893 893 892 890 889 889 888 887 886 884 883 881 880 878 877 875 874 872 871 870 868 867 865 864 862 861 859 858 856 855 853 851 849
827 830 833 836 838 841 843 846 848 850 851 853 854 856 858 860 862 864 867 870 872 874 876 878 880 882 883 885 886 887 888 889 890 891 891 892 892 891 891 892 892 892 892 892 892 892 891 891 891 890 890 891 891 890 889 888 887 887 885 884 883 882 881 880 878 877 875 874 872 871 869 868 866 865 864 862 860 858 857 855 853 852 849 847 845
827 829 832 835 838 840 843 846 848 850 852 854 855 856 858 859 862 864 867 870 872 874 876 878 879 881 883 884 885 886 887 888 889 890 890 890 891 890 890 891 891 891 891 891 891 891 891 890 890 889 889 888 888 887 887 886 885 884 883 882 881 880 879 877 876 875 873 872 870 869 867 866 864 863 861 860 858 856 854 852 850 848 845 843 840
827 829 832 835 838 840 843 845 848 850 852 854 855 857 858 859 861 864 867 869 871 873 875 876 878 880 881 883 884 885 886 887 887 888 889 889 889 889 889 890 890 890 890 890 890 890 889 889 888 888 887 886 885 885 884 883 882 881 880 879 878 877 876 875 874 872 871 869 868 866 865 863 862 860 858 857 855 853 851 849 846 844 842 840 836
826 829 831 834 837 840 843 845 847 850 852 854 855 857 858 860 861 863 866 868 870 872 874 875 877 879 880 881 883 884 885 886 886 887 887 888 888 888 889 889 889 889 889 889 888 888 888 887 887 886 885 884 883 883 882 881 880 879 878 877 876 875 874 872 871 870 868 867 866 864 862 860 859 857 856 854 852 850 849 846 844 842 840 838 834
825 828 831 834 837 840 842 845 847 849 851 853 855 857 858 860 861 863 865 867 869 871 873 874 876 877 879 880 882 883 884 884 885 886 886 887 887 888 888 888 888 888 888 887 887 886 885 885 885 884 883 882 881 880 880 879 878 876 875 874 873 872 871 870 869 867 866 864 863 861 859 858 856 854 853 851 849 848 846 844 842 840 838 836 832
826 828 831 834 837 839 842 845 846 848 851 853 855 856 858 860 862 864 866 867 869 871 872 874 875 877 878 879 881 882 883 883 884 885 885 886 886 887 887 887 887 887 887 886 885 885 884 883 883 882 881 880 879 879 878 876 875 874 873 872 871 869 868 867 866 865 863 862 860 858 857 855 853 852 851 849 847 845 843 842 840 837 835 834 830
826 829 831 833 836 838 841 844 846 848 850 852 854 856 858 860 862 864 866 867 869 870 872 873 875 876 878 879 880 881 881 882 882 883 884 885 885 885 886 886 886 886 886 885 884 884 883 882 882 881 880 879 878 877 876 875 874 872 871 869 868 867 866 864 863 862 860 859 857 856 855 853 851 850 848 846 844 843 841 839 837 835 833 831 828
824 827 830 832 834 837 840 843 845 848 850 851 853 855 857 860 862 863 865 867 869 870 871 873 874 875 877 878 878 879 880 880 881 882 882 883 884 884 884 884 884 884 884 884 883 883 882 881 880 879 878 877 876 875 874 873 872 870 869 867 865 864 863 862 860 859 858 856 855 854 852 851 849 847 846 844 842 840 838 836 835 833 831 829 826
822 825 828 831 834 837 840 842 844 847 849 851 853 854 856 859 861 863 865 867 868 870 871 872 874 875 875 876 877 878 879 879 880 881 881 882 882 882 883 883 883 883 883 883 882 881 880 879 878 877 876 875 874 873 872 870 869 868 866 864 863 861 860 859 858 857 855 854 853 851 850 848 847 845 843 841 839 837 835 834 832 830 828 826 823
822 824 827 830 834 837 839 841 844 846 848 850 851 853 855 858 860 862 865 867 868 869 870 871 873 873 874 875 876 877 878 878 879 879 880 880 881 881 881 881 881 881 881 881 880 879 878 877 876 875 874 873 872 871 870 868 867 865 864 862 860 858 857 856 854 853 852 851 850 848 847 845 844 842 840 839 837 834 832 831 829 828 825 823 820
823 825 827 830 833 835 838 840 843 845 847 849 850 852 855 857 859 861 863 865 867 868 869 870 871 872 873 874 875 876 876 877 877 878 878 879 879 879 879 879 879 879 879 879 878 877 876 875 874 872 871 870 869 868 867 865 864 862 861 859 858 856 854 853 851 850 849 848 847 845 844 842 841 839 838 836 834 832 830 828 826 825 823 820 817
825 827 829 831 833 835 837 840 842 844 846 848 850 852 854 856 858 860 862 863 865 866 868 869 870 871 872 873 873 874 875 875 876 876 877 877 877 877 877 877 877 877 877 876 875 874 873 872 871 870 869 867 866 865 864 863 861 860 858 856 855 853 852 850 849 848 846 845 844 842 841 839 838 836 835 833 831 829 827 825 824 821 819 817 814
825 827 829 831 833 835 837 839 841 843 845 847 849 852 854 856 858 860 861 863 864 865 867 868 868 870 871 871 872 873 873 874 874 875 875 875 875 875 875 875 875 875 874 873 872 871 870 869 868 867 866 864 863 862 861 860 858 857 855 854 852 851 849 848 847 845 844 842 841 839 838 836 834 833 832 829 828 826 823 821 820 818 816 814 811
825 826 828 830 832 835 837 839 841 843 845 847 849 851 853 855 857 859 860 862 863 864 865 866 867 869 869 870 871 871 872 872 873 873 873 873 873 873 873 872 872 872 871 870 869 868 867 866 865 864 863 861 860 859 858 857 855 853 852 851 849 848 846 845 844 843 841 839 838 836 835 833 831 830 829 826 824 822 820 818 816 814 812 810 808
825 826 828 830 832 834 837 838 841 843 845 847 849 851 853 855 856 858 859 861 862 863 864 865 866 867 868 868 869 870 870 871 871 871 871 871 871 871 870 870 869 869 868 867 867 865 864 863 862 861 860 858 857 856 854 853 852 851 849 848 846 844 843 842 841 839 838 836 834 833 831 830 828 827 825 823 821 819 817 815 813 811 809 807 805
825 827 829 831 832 834 836 838 840 842 844 846 848 850 851 853 855 856 858 859 860 862 863 863 864 866 866 867 867 868 868 869 869 869 869 869 868 868 868 867 866 866 865 864 864 862 861 860 859 858 857 855 854 853 852 850 849 848 846 845 843 841 840 839 837 836 834 833 831 830 828 827 825 824 822 820 818 815 813 812 810 808 806 803 801
824 827 829 830 832 834 836 837 839 841 843 845 847 848 850 852 854 855 857 858 859 860 861 862 863 864 865 865 865 866 867 867 867 867 867 866 866 866 865 864 864 863 862 861 860 859 858 857 856 855 854 852 851 850 849 847 846 845 843 842 840 838 837 836 834 832 831 829 828 827 825 823 822 820 818 816 814 813 811 809 807 805 803 800 797
824 826 828 830 832 833 835 837 839 840 842 844 845 847 849 851 853 854 855 857 858 859 860 861 862 863 863 863 864 864 864 865 865 865 865 864 864 863 863 862 861 860 859 858 857 856 855 854 853 852 851 850 849 847 846 844 843 841 840 839 837 835 834 832 831 829 828 826 825 823 822 820 819 817 815 813 811 810 808 806 804 802 800 797 794
824 825 827 829 831 832 834 836 837 840 842 843 845 847 848 850 852 853 854 855 857 857 858 859 860 861 861 862 862 862 862 862 863 863 862 862 861 860 860 859 858 857 856 855 854 853 852 851 851 850 848 847 846 844 843 842 840 839 837 835 834 832 830 829 827 826 824 823 821 820 818 817 815 814 811 810 808 807 805 803 801 799 797 794 791
823 825 826 828 829 831 833 835 837 839 841 842 844 846 848 849 851 852 853 854 855 856 856 857 858 859 859 860 860 860 860 860 860 860 859 859 858 857 857 856 855 854 853 852 851 851 849 848 848 847 845 845 843 842 841 839 837 836 835 832 831 830 828 826 825 823 822 820 818 817 815 813 812 810 808 807 805 804 802 800 798 796 793 790 787
823 824 826 827 829 831 832 834 836 838 840 842 843 845 847 848 850 850 851 852 853 854 855 856 856 857 857 857 858 858 858 858 858 857 856 856 855 855 854 853 852 851 850 849 849 848 846 846 845 844 843 842 840 839 838 836 834 833 832 830 828 826 825 823 822 820 819 818 816 814 812 811 809 807 806 804 803 801 798 797 795 792 790 787 785
822 824 825 827 828 830 832 834 835 837 839 841 843 844 845 847 848 849 850 851 851 852 853 853 854 855 855 855 855 855 855 855 855 854 854 853 852 852 851 850 849 849 848 846 846 845 844 843 842 841 840 839 837 836 834 833 831 830 828 827 825 823 822 821 819 818 817 815 813 811 810 808 806 805 803 801 800 798 795 793 791 789 786 784 781
821 823 824 826 827 829 830 832 834 836 838 839 841 842 844 845 846 847 848 849 849 850 851 851 852 852 852 853 853 853 853 853 852 852 851 851 850 849 848 847 847 846 845 844 843 842 841 840 839 838 837 835 834 833 831 829 828 826 825 823 822 820 819 818 816 815 814 812 810 809 807 805 803 802 800 799 797 794 792 790 788 785 783 781 778
820 822 824 825 826 828 829 831 833 834 836 838 839 840 842 843 844 845 846 847 848 848 849 849 850 850 850 850 850 850 850 850 849 849 848 848 847 847 846 845 844 843 842 841 840 839 838 837 836 834 834 832 831 830 828 826 825 823 821 820 818 817 816 815 813 811 810 809 807 806 804 802 800 798 796 795 794 791 788 787 784 782 780 778 775
819 821 822 824 825 827 828 830 832 833 834 836 837 839 840 841 842 843 844 845 845 846 846 847 847 847 847 848 848 847 848 847 846 846 846 845 844 844 843 842 841 840 839 838 837 836 835 834 833 832 831 829 827 826 825 823 822 820 818 817 815 813 813 812 810 808 807 805 804 803 801 798 797 795 793 791 790 788 785 784 781 779 778 775 772
818 820 821 823 824 826 827 829 830 831 833 835 836 837 838 839 840 841 842 842 843 844 844 844 844 845 845 845 845 845 845 844 844 843 843 842 841 841 840 839 838 837 836 835 834 833 832 831 830 829 827 826 824 823 821 819 818 816 815 813 812 810 809 808 806 805 804 802 800 799 797 795 793 791 789 788 786 784 782 780 778 776 775 772 769
817 819 820 821 823 824 826 828 829 830 832 833 834 835 836 837 838 839 840 840 841 841 841 841 842 842 842 842 842 842 842 841 841 840 840 839 838 838 837 836 835 834 833 832 831 830 829 828 826 825 824 822 821 819 818 816 815 813 811 810 809 807 806 805 803 802 801 799 797 796 794 792 790 788 786 784 783 781 779 777 775 773 771 769 766
816 817 819 820 822 823 825 826 827 829 830 831 832 833 834 835 836 837 837 838 838 838 839 839 839 839 839 839 839 839 838 838 838 837 836 836 835 834 834 833 832 831 829 828 827 826 825 824 823 822 821 819 817 816 814 812 811 809 808 807 805 804 803 801 800 798 797 796 794 793 791 789 787 785 783 781 780 778 776 774 773 770 768 765 762